Showing default

KUIPER-00149, 65968

Orbit data source: Space-Track

KUIPER-00149, 65968 is a payload satellite owned by Kuiper Systems (US) in LEO that was launched on Tue, 14 Oct 2025 UTC via an FALCON 9 launch vehicle from the Air Force Eastern Test Range (AFETR). Payload-class satellites include a variety of spacecraft equipped with specific instruments for various scientific and technological missions. These include communications satellites like Starlink; space stations such as the ISS; scientific satellites like the Hubble; Earth observation satellites from companies like Planet Labs, Umbra, and HawkEye 360; GPS; miniature CubeSats for education and research; and military/defense satellites.

Loading next visibility...
Identifier
65968, 2025-228X
Orbit
LEO
Country
Flag of USUS
Related business
Manufacturer
Kuiper Systems
Mission
Operational Commercial Communications
Bus & Motor
KUIPER, Unknown motor
Mass
~490 kg wet, ~490 kg dry
Launch date (UTC)
2025-10-14 (8 months ago)
Launch vehicle
FALCON 9
Launch site
Air Force Eastern Test Range (AFETR)
Object type
Payload
Rocket body
Debris
Shape & HBR
Box + 2 Pan, 3.4 m
Radar Cross Section
2.326 m², Large (>1 m²)

Expand to show TLE details & history
Last TLE update: 9 hours ago

TLE from 9 hours ago
0 KUIPER-00149
1 65968U 25228X   26171.46626262  .00002133  00000-0  30863-3 0  9996
2 65968  51.8998 243.6350 0000463  99.1623 260.9391 14.79936441 38764
Epoch: 2026-06-20T11:11Z
TLE epoch observation values (Epoch: 2026-06-20T11:11:25.090Z)
Latitude
-0.00007°
Longitude
167.09992°
Altitude
630.323 km
Speed
7.544 km/s
True Right ascension
16h 14m 32s
True Declination
0° 00' 00"
Sunlit
Object was in full shadow at epoch
Visualization orbit readout
Latitude
Unknown
Longitude
Unknown
Altitude
Unknown
Speed
Unknown
Apparent Right ascension
Unknown
Apparent Declination
Unknown
Sunlit
N/A
Visualization observer readout
Local Sidereal Time
07:15:35
Azimuth
Unknown
Elevation
Unknown
Doppler factor
Unknown
Orbital elements
Apogee altitude
630.3 km
Perigee altitude
629.651 km
Semi-major axis
7,008.113 km
Eccentricity
0.00005
Inclination
51.8998°
RAAN
243.635°
Arg. of periapsis
99.1623°
True anomaly
260.93386°
Mean anomaly
260.9391°
Eccentric anomaly
260.93648°
Mean motion
3.69949 °/min
Orbital period
97.31 mins
BSTAR
0.00030863
Loading maneuver chart data...
Computing Atmospheric mass density...
Loading historical data...
Loading historical data...
Loading historical data...
Loading historical data...
Loading historical data...
Loading historical data...
Loading historical data...

Documentation

Showing up to 5 results
|